Regional Weather Roundup
Issued by NWS

Home | Current Version | Previous Version | Text Only | Print | Product List | Glossary On
Versions: 1 2 3 4 5 6 7 8 9 10 11 12 13 14 15 16 17 18 19 20 21 22 23 24 25 26 27 28 29 30 31 32 33 34 35 36 37 38 39 40 41 42 43 44 45 46 47 48 49 50
000
ASUS43 KDMX 291008
RWRIA

WEATHER ROUNDUP FOR IOWA
NATIONAL WEATHER SERVICE DES MOINES IA
500 AM CDT THU SEP 29 2016

NOTE: "FAIR" INDICATES FEW OR NO CLOUDS BELOW 12,000 FEET WITH NO
SIGNIFICANT WEATHER AND/OR OBSTRUCTIONS TO VISIBILITY.

* - THESE STATIONS ARE NOT NWS STATIONS...THUS NOT UNDER NWS
QUALITY CONTROL.  THEY ALSO DO NOT REPORT WEATHER SUCH
AS PRECIPITATION OR FOG.

IAZ001>003-012>014-020>022-031>034-043>046-291100-
   NORTHWEST IOWA

CITY           SKY/WX    TMP DP  RH WIND       PRES   REMARKS
CARROLL *      CLEAR     46  46 100 NW6       30.37R
CHEROKEE *     CLEAR     43  43 100 NE6       30.39S
DENISON *      CLEAR     46  45  93 CALM      30.36R FOG
LE MARS *      CLOUDY    43  43 100 NE5       30.41S
ORANGE CITY *  CLOUDY    43  41  93 NW7       30.41R
SHELDON *      CLEAR     41  41 100 N3        30.39R FOG
SIOUX CITY     CLEAR     45  43  93 NW7       30.40S
SPENCER        CLEAR     42  42 100 NW7       30.40R
STORM LAKE *   CLEAR     48  48 100 NE12      30.38S
$$

IAZ055>058-069>071-079>083-090>094-291100-
   SOUTHWEST IOWA

CITY           SKY/WX    TMP DP  RH WIND       PRES   REMARKS
ATLANTIC *     CLEAR     46  46 100 NE3       30.36R
AUDUBON *      CLEAR     46  45  93 CALM      30.37S
CLARINDA *       N/A     46  46 100 MISG      30.36R FOG
COUNCIL BLFS * CLEAR     48  46  93 N8        30.36S
CRESTON *      CLEAR     50  48  93 N10       30.35R
HARLAN  *      CLEAR     46  46 100 N5        30.40R
LAMONI         CLEAR     50  48  93 N9        30.32R
RED OAK *      CLEAR     45  45 100 CALM      30.35S
SHENANDOAH *   CLEAR     46  45  93 CALM      30.36R
$$

IAZ047>049-059>061-072>074-084-291100-
   CENTRAL IOWA

CITY           SKY/WX    TMP DP  RH WIND       PRES   REMARKS
AMES           CLEAR     49  49 100 N7        30.34R
ANKENY *         N/A    N/A N/A N/A MISG        N/A
BOONE *        CLEAR     46  46 100 N8        30.34R
CHARITON *       N/A     48  48 100 N6        30.31R
DES MOINES     CLEAR     53  50  89 N8        30.33R
GRINNELL*      CLEAR     51  49  93 N6        30.32R
KNOXVILLE *    CLEAR     52  50  93 N8        30.30R
MARSHALLTOWN   CLEAR     50  49  96 N7        30.32R
NEWTON *       CLEAR     50  48  93 N7        30.32R
PELLA *        CLEAR     50  49  95 N3        30.32R
PERRY *          N/A     49  48  99 N6        30.36R
$$

IAZ004>006-015-016-023>025-035-036-291100-
   NORTH CENTRAL IOWA

CITY           SKY/WX    TMP DP  RH WIND       PRES   REMARKS
ALGONA *       CLEAR     46  45  93 N5        30.39R
CLARION *      CLEAR     46  46 100 NE5       30.37R
ESTHERVILLE    CLEAR     44  44 100 N7        30.40R
FORT DODGE *   CLEAR     46  43  87 N5        30.38R
MASON CITY     MOCLDY    49  48  97 N6        30.39R
FOREST CITY *    N/A     46  46 100 N6        30.38R
WEBSTER CITY * CLEAR     46  46 100 NW5       30.34S
IOWA FALLS *     N/A     51  49  95 N7        30.36R
$$

IAZ007>011-017>019-026>030-037>042-050>054-066-291100-
   NORTHEAST IOWA

CITY           SKY/WX    TMP DP  RH WIND       PRES   REMARKS
CEDAR RAPIDS   CLEAR     50  50 100 N9        30.27R
CHARLES CITY * CLEAR     50  48  93 N5        30.35S
CLINTON *      MOCLDY    52  50  93 N12       30.22S
DECORAH *      CLOUDY    50  50 100 N6        30.34R
DUBUQUE        PTCLDY    51  49  92 N13       30.27R
MONTICELLO *   CLEAR     50  48  93 N6        30.27R
OELWEIN *      CLEAR     50  50 100 N12       30.33R
WATERLOO       CLEAR     50  48  93 N9        30.32R
$$

IAZ064-065-067-068-078-291100-
   EAST CENTRAL IOWA

CITY           SKY/WX    TMP DP  RH WIND       PRES   REMARKS
DAVENPORT      CLEAR     52  49  89 N14       30.22S
IOWA CITY      CLEAR     54  49  83 N9        30.28R
MT. PLEASANT * CLEAR     53  52  97 NW12      30.24S
MUSCATINE *    CLEAR     55  50  82 N12G17    30.24S
QUAD CITIES    CLEAR     55  49  80 N9        30.21R
$$

IAZ062-063-075>077-085>089-095>099-291100-
   SOUTHEAST IOWA

CITY           SKY/WX    TMP DP  RH WIND       PRES   REMARKS
BURLINGTON     CLEAR     52  50  93 N10       30.21S
FAIRFIELD *    CLEAR     48  46  93 N8        30.26R
FORT MADISON * CLEAR     52  48  87 N8        30.23R
KEOKUK *       CLEAR     52  50  93 N8        30.21S
OSKALOOSA *      N/A     48  47  95 N8        30.30R
OTTUMWA        CLEAR     48  45  89 NW12      30.29R
WASHINGTON *     N/A    N/A N/A N/A MISG        N/A
$$

ABBREVIATIONS USED IN REMARKS
   TC - TEMPERATURES IN CELSIUS
  WCI - WIND CHILL INDEX
   HX - HEAT INDEX
  VSB - VISIBILITY
$$





USA.gov is the U.S. government's official web portal to all federal, state and local government web resources and services.